SOO78 MDSD-SKBO

Flight info

Callsign SOO78
Flight time 0h 33m
Altitude 32000
Route BEROX4L BEROX DCT AMBAS DCT UGOSA DCT LOKOV/N0498F330 UG444 EJA/N0500F320 UQ119 ILSEV ILSEV5W
Aircraft B77L/H-SDE1E2E3FGHIJ2J3J4J5M1RWXY/LB1D1

Departure

Time 2026-04-30 04:03
Airport Las Américas International Airport (MDSD)

Arrival

Time 2026-04-30 04:36
Airport El Dorado International Airport (SKBO)
Time Latitude Longitude Altitude Speed Heading
2026-04-30 03:51 18.43453 -69.67618 72 ft 0 kts 296°
2026-04-30 03:54 18.43452 -69.67617 72 ft 1 kts 296°
2026-04-30 03:54 18.43442 -69.67594 72 ft 4 kts 296°
2026-04-30 03:55 18.43430 -69.67569 70 ft 4 kts 296°
2026-04-30 03:55 18.43420 -69.67548 71 ft 4 kts 293°
2026-04-30 03:55 18.43417 -69.67526 65 ft 4 kts 227°
2026-04-30 03:55 18.43434 -69.67521 66 ft 4 kts 158°
2026-04-30 03:56 18.43457 -69.67531 71 ft 1 kts 158°
2026-04-30 03:58 18.43450 -69.67528 71 ft 2 kts 158°
2026-04-30 03:58 18.43430 -69.67517 65 ft 5 kts 144°
2026-04-30 03:58 18.43427 -69.67447 66 ft 15 kts 57°
2026-04-30 03:59 18.43496 -69.67369 68 ft 14 kts 48°
2026-04-30 03:59 18.43484 -69.67281 70 ft 14 kts 153°
2026-04-30 03:59 18.43388 -69.67244 61 ft 17 kts 160°
2026-04-30 03:59 18.43269 -69.67199 63 ft 18 kts 161°
2026-04-30 04:00 18.43128 -69.67147 69 ft 23 kts 160°
2026-04-30 04:00 18.42957 -69.67084 67 ft 32 kts 161°
2026-04-30 04:00 18.42699 -69.66990 73 ft 40 kts 161°
2026-04-30 04:00 18.42445 -69.66896 69 ft 38 kts 161°
2026-04-30 04:01 18.42203 -69.66808 66 ft 36 kts 161°
2026-04-30 04:01 18.41976 -69.66726 65 ft 33 kts 161°
2026-04-30 04:01 18.41767 -69.66650 72 ft 29 kts 161°
2026-04-30 04:01 18.41639 -69.66519 74 ft 22 kts 116°
2026-04-30 04:02 18.41567 -69.66416 71 ft 15 kts 175°
2026-04-30 04:02 18.41547 -69.66496 74 ft 14 kts 288°
2026-04-30 04:02 18.41598 -69.66582 70 ft 18 kts 323°
2026-04-30 04:02 18.41841 -69.66676 74 ft 66 kts 340°
2026-04-30 04:03 18.42478 -69.66907 71 ft 125 kts 341°
2026-04-30 04:03 18.43481 -69.67280 83 ft 178 kts 340°
2026-04-30 04:03 18.44663 -69.67718 686 ft 176 kts 342°
2026-04-30 04:03 18.45843 -69.68118 1267 ft 181 kts 344°
2026-04-30 04:04 18.47063 -69.68529 1802 ft 185 kts 343°
2026-04-30 04:04 18.48361 -69.68979 2041 ft 209 kts 343°
2026-04-30 04:04 18.49824 -69.69480 2217 ft 235 kts 344°
2026-04-30 04:04 18.51430 -69.70036 2592 ft 253 kts 343°
2026-04-30 04:05 18.53127 -69.70609 3189 ft 258 kts 353°
2026-04-30 04:05 18.54912 -69.70404 3562 ft 261 kts 26°
2026-04-30 04:05 18.56313 -69.69252 4268 ft 259 kts 57°
2026-04-30 04:05 18.56906 -69.67485 4963 ft 261 kts 85°
2026-04-30 04:06 18.56700 -69.65568 5618 ft 268 kts 108°
2026-04-30 04:06 18.50353 -69.60388 8818 ft 270 kts 158°
2026-04-30 04:06 18.35917 -69.59204 14032 ft 265 kts 189°
2026-04-30 04:06 18.20970 -69.61411 18204 ft 286 kts 189°
2026-04-30 04:07 18.04389 -69.65002 21872 ft 323 kts 187°
2026-04-30 04:07 18.01628 -69.65571 22208 ft 338 kts 187°
2026-04-30 04:07 17.99267 -69.66049 22412 ft 353 kts 188°
2026-04-30 04:08 17.37034 -69.78815 29646 ft 467 kts 191°
2026-04-30 04:08 16.70627 -69.92377 33629 ft 493 kts 192°
2026-04-30 04:08 16.21172 -70.02470 34025 ft 492 kts 194°
2026-04-30 04:09 15.66093 -70.26239 34180 ft 472 kts 212°
2026-04-30 04:09 14.74169 -70.77867 33911 ft 462 kts 213°
2026-04-30 04:09 14.30926 -71.02131 33810 ft 453 kts 213°
2026-04-30 04:10 13.86832 -71.26752 33970 ft 454 kts 213°
2026-04-30 04:10 12.96063 -71.77084 33999 ft 470 kts 211°
2026-04-30 04:11 12.06341 -72.28030 33866 ft 472 kts 210°
2026-04-30 04:11 11.60866 -72.53843 33749 ft 466 kts 210°
2026-04-30 04:11 11.15581 -72.79462 33832 ft 465 kts 210°
2026-04-30 04:11 10.71698 -73.04205 33997 ft 473 kts 210°
2026-04-30 04:12 10.25117 -73.30379 34014 ft 480 kts 209°
2026-04-30 04:12 9.78880 -73.56251 33882 ft 478 kts 209°
2026-04-30 04:12 9.27722 -73.66632 33952 ft 469 kts 191°
2026-04-30 04:13 8.23730 -73.85373 33948 ft 481 kts 191°
2026-04-30 04:13 7.70079 -73.85843 34126 ft 489 kts 173°
2026-04-30 04:13 7.15599 -73.81629 33982 ft 492 kts 176°
2026-04-30 04:13 6.62671 -73.88655 34060 ft 485 kts 191°
2026-04-30 04:14 6.51858 -73.90450 34032 ft 492 kts 188°
2026-04-30 04:14 6.45026 -73.91467 33928 ft 497 kts 189°
2026-04-30 04:15 6.38241 -73.92650 33922 ft 497 kts 191°
2026-04-30 04:15 6.31438 -73.93924 33874 ft 497 kts 191°
2026-04-30 04:16 6.24633 -73.95206 33879 ft 496 kts 191°
2026-04-30 04:16 6.17838 -73.96475 33882 ft 496 kts 191°
2026-04-30 04:17 6.11103 -73.97730 33853 ft 496 kts 191°
2026-04-30 04:17 6.07668 -73.98370 33012 ft 506 kts 191°
2026-04-30 04:17 6.04205 -73.99014 32189 ft 506 kts 191°
2026-04-30 04:17 6.00725 -73.99662 31262 ft 506 kts 191°
2026-04-30 04:18 5.97363 -74.00295 30419 ft 506 kts 191°
2026-04-30 04:18 5.93917 -74.00950 29780 ft 500 kts 191°
2026-04-30 04:18 5.90521 -74.01597 29105 ft 495 kts 190°
2026-04-30 04:18 5.87155 -74.02237 28451 ft 490 kts 190°
2026-04-30 04:19 5.83821 -74.02870 27837 ft 485 kts 190°
2026-04-30 04:19 5.80564 -74.03489 27279 ft 479 kts 190°
2026-04-30 04:19 5.77299 -74.04109 26723 ft 474 kts 189°
2026-04-30 04:19 5.74077 -74.04725 26153 ft 469 kts 189°
2026-04-30 04:20 5.70879 -74.05332 25567 ft 465 kts 189°
2026-04-30 04:20 5.67714 -74.05931 24986 ft 460 kts 189°
2026-04-30 04:20 5.64577 -74.06524 24402 ft 456 kts 189°
2026-04-30 04:20 5.61512 -74.07104 23843 ft 452 kts 189°
2026-04-30 04:21 5.58433 -74.07687 23242 ft 449 kts 189°
2026-04-30 04:21 5.55370 -74.08269 22721 ft 444 kts 189°
2026-04-30 04:21 5.52374 -74.08837 22557 ft 431 kts 189°
2026-04-30 04:21 5.49458 -74.09390 22383 ft 420 kts 189°
2026-04-30 04:22 5.46625 -74.09927 22266 ft 407 kts 189°
2026-04-30 04:22 5.43889 -74.10481 22143 ft 393 kts 194°
2026-04-30 04:22 5.41454 -74.11577 21953 ft 387 kts 211°
2026-04-30 04:22 5.39432 -74.13370 21515 ft 384 kts 226°
2026-04-30 04:23 5.37686 -74.15395 21115 ft 381 kts 227°
2026-04-30 04:23 5.35959 -74.17406 20645 ft 380 kts 227°
2026-04-30 04:23 5.34226 -74.19410 20164 ft 379 kts 226°
2026-04-30 04:23 5.32355 -74.21224 19736 ft 376 kts 216°
2026-04-30 04:24 5.30224 -74.22729 19398 ft 373 kts 209°
2026-04-30 04:24 5.28739 -74.23583 19188 ft 370 kts 204°
2026-04-30 04:24 5.26427 -74.24710 18878 ft 367 kts 203°
2026-04-30 04:24 5.24122 -74.25806 18576 ft 366 kts 202°
2026-04-30 04:25 5.21824 -74.26895 18260 ft 365 kts 203°
2026-04-30 04:25 5.19532 -74.27986 17949 ft 363 kts 203°
2026-04-30 04:25 5.17254 -74.29074 17643 ft 360 kts 203°
2026-04-30 04:25 5.14988 -74.30157 17338 ft 359 kts 203°
2026-04-30 04:26 5.12764 -74.31226 17051 ft 358 kts 203°
2026-04-30 04:26 5.10521 -74.32306 16766 ft 356 kts 203°
2026-04-30 04:26 5.06744 -74.34124 16276 ft 353 kts 203°
2026-04-30 04:26 4.92275 -74.41002 14590 ft 325 kts 195°
2026-04-30 04:27 4.90129 -74.41122 14643 ft 298 kts 162°
2026-04-30 04:27 4.88349 -74.40200 14564 ft 284 kts 142°
2026-04-30 04:27 4.86672 -74.39144 14375 ft 284 kts 150°
2026-04-30 04:27 4.84934 -74.38242 14214 ft 285 kts 152°
2026-04-30 04:28 4.83141 -74.37341 14017 ft 284 kts 152°
2026-04-30 04:28 4.81400 -74.36458 13842 ft 283 kts 152°
2026-04-30 04:28 4.79654 -74.35552 13660 ft 282 kts 151°
2026-04-30 04:28 4.77945 -74.34661 13516 ft 271 kts 152°
2026-04-30 04:29 4.76301 -74.33818 13458 ft 263 kts 152°
2026-04-30 04:29 4.74667 -74.32977 13469 ft 265 kts 151°
2026-04-30 04:29 4.73030 -74.32131 13468 ft 262 kts 152°
2026-04-30 04:29 4.71448 -74.31318 13515 ft 248 kts 151°
2026-04-30 04:30 4.69991 -74.30518 13443 ft 228 kts 144°
2026-04-30 04:30 4.68800 -74.29546 13481 ft 221 kts 134°
2026-04-30 04:30 4.67795 -74.28368 13425 ft 223 kts 127°
2026-04-30 04:30 4.66824 -74.27143 13185 ft 223 kts 128°
2026-04-30 04:31 4.65859 -74.25942 12981 ft 217 kts 128°
2026-04-30 04:31 4.64924 -74.24780 12803 ft 212 kts 128°
2026-04-30 04:31 4.63992 -74.23631 12628 ft 213 kts 128°
2026-04-30 04:31 4.63072 -74.22463 12390 ft 215 kts 125°
2026-04-30 04:32 4.62290 -74.21178 12135 ft 218 kts 115°
2026-04-30 04:32 4.61741 -74.19748 11857 ft 221 kts 105°
2026-04-30 04:32 4.61384 -74.18269 11561 ft 216 kts 104°
2026-04-30 04:32 4.61014 -74.16853 11263 ft 208 kts 105°
2026-04-30 04:33 4.60652 -74.15497 10978 ft 198 kts 104°
2026-04-30 04:33 4.60396 -74.14170 10731 ft 193 kts 90°
2026-04-30 04:33 4.60593 -74.12843 10539 ft 194 kts 71°
2026-04-30 04:33 4.61246 -74.11662 10268 ft 195 kts 50°
2026-04-30 04:34 4.62264 -74.10791 10042 ft 192 kts 31°
2026-04-30 04:34 4.63477 -74.10306 9792 ft 186 kts 10°
2026-04-30 04:34 4.64757 -74.10317 9545 ft 185 kts 352°
2026-04-30 04:34 4.65977 -74.10724 9271 ft 186 kts 330°
2026-04-30 04:35 4.66973 -74.11532 9045 ft 183 kts 312°
2026-04-30 04:35 4.67736 -74.12547 8817 ft 181 kts 308°
2026-04-30 04:35 4.68493 -74.13548 8548 ft 177 kts 308°
2026-04-30 04:35 4.69234 -74.14522 8368 ft 172 kts 307°
2026-04-30 04:36 4.69858 -74.15343 8368 ft 119 kts 307°
2026-04-30 04:36 4.70226 -74.15830 8364 ft 64 kts 307°
2026-04-30 04:36 4.70361 -74.15992 8366 ft 11 kts 342°
2026-04-30 04:36 4.70428 -74.15953 8366 ft 12 kts 39°
2026-04-30 04:37 4.70491 -74.15903 8365 ft 12 kts 38°
2026-04-30 04:37 4.70490 -74.15819 8366 ft 15 kts 124°
2026-04-30 04:37 4.70214 -74.15455 8365 ft 0 kts 127°
2026-04-30 04:37 4.69572 -74.14375 8366 ft 1440 kts 37°
2026-04-30 04:38 4.69264 -74.14092 8366 ft 0 kts 39°